SCP
0 0 0 0 0 0 0 0 0 0 0 0 0 0 0 0 0 0 0 -0 -0 -0 0 0 0 0 -0 -0 0 0 -0 -0 -0 -0 -0 -0 -0 -0 -0 -0 -0 -0 -0 -0 -0 0 -0 -0 -0
0 0 0 0 0 0 0 0 0 0 0 0 0 0 0 0 0 0 0 -0 -0 -0 0 0 0 -0 -0 0 0 0 -0 -0 -0 -0 -0 -0 -0 -0 -0 -0 -0 -0 -0 0 0 0 -0 -0 -0
0 0 0 0 0 0 0 0 0 0 0 0 0 0 0 0 0 0 0 -0 -0 0 0 0 0 -0 -0 -0 -0 -0 -0 -0 -0 -0 -0 -0 -0 -0 -0 -0 -0 0 0 0 0 0 -0 0 -0
0 0 0 0 0 0 0 0 0 0 0 0 0 0 0 0 0 0 0 0 0 0 0 0 -0 -0 -0 -0 -0 -0 -0 -0 -0 -0 -0 -0 -0 -0 -0 0 0 0 0 0 0 0 -0 -0 -0
0 0 0 0 0 0 0 0 0 0 0 0 0 0 0 0 0 0 0 0 0 0 0 0 -0 -0 -0 -0 -0 -0 -0 -0 -0 -0 -0 -0 -0 -0 0 0 0 0 0 0 -0 -0 -0 -0 -0
0 0 0 0 0 0 0 0 0 0 0 0 0 0 0 0 0 0 0 0 0 0 0 0 0 0 -0 -0 -0 -0 -0 -0 -0 -0 -0 -0 0 0 0 0 0 -0 -0 -0 -0 -0 -0 -0 -0
0 0 0 0 0 0 0 0 0 0 0 0 0 0 0 0 0 0 0 0 0 0 0 0 0 0 0 0 -0 -0 -0 -0 -0 -0 -0 0 0 0 -0 -0 -0 -0 -0 -0 -0 -0 -0 -0 0
0 0 0 0 0 0 0 0 0 0 0 0 0 0 0 0 0 0 0 0 0 0 0 0 0 0 0 0 0 0 -0 0 0 0 -0 -0 -0 -0 -0 -0 -0 -0 0 0 0 0 0 0 0
0 0 0 0 0 0 0 0 0 0 0 0 0 0 0 0 0 0 0 0 0 0 0 0 0 0 0 0 0 0 0 0 0 -0 -0 -0 -0 -0 -0 0 0 0 0 0 0 0 0 0 0
0 0 0 0 0 0 0 0 0 0 0 0 0 0 0 0 0 0 0 0 0 0 0 0 0 0 0 0 0 -0 -0 -0 -0 0 -0 -0 -0 -0 0 0 0 0 0 0 0 0 0 0 0
0 0 0 0 0 -0 0 0 0 0 0 0 0 0 0 0 0 0 0 0 0 0 0 0 0 0 0 0 -0 -0 -0 -0 0 0 -0 -0 -0 -0 0 0 0 0 0 0 0 0 0 0 0
0 0 0 0 0 0 0 0 0 0 0 0 0 0 0 0 0 0 0 0 0 0 0 0 0 0 0 0 -0 0 0 0 0 -0 -0 -0 0 -0 0 0 0 0 0 0 0 0 0 0 0
0 0 0 0 0 0 0 0 0 0 0 0 0 0 0 0 0 0 0 0 0 0 0 0 0 0 0 0 0 0 0 -0 -0 -0 -0 0 0 0 0 0 0 0 0 0 0 0 0 0 0
0 0 0 0 0 0 0 0 0 0 0 0 0 0 0 0 0 0 0 0 0 0 0 -0 -0 0 0 0 0 0 0 0 -0 -0 0 0 0 0 0 0 0 0 0 0 0 0 0 0 0
0 0 0 0 0 0 0 0 0 0 0 0 0 0 0 0 0 0 0 0 0 0 0 -0 -0 0 0 0 0 0 0 0 0 0 0 0 0 0 0 0 0 0 0 0 0 0 0 0 0
0 0 0 0 0 0 0 0 0 0 0 0 0 0 0 0 0 0 0 0 0 0 0 0 0 0 0 0 0 0 0 0 0 0 0 0 0 0 0 0 0 0 0 0 0 0 0 0 0
-0 0 0 0 0 0 0 0 0 0 0 0 0 0 0 0 0 0 0 0 0 0 0 0 0 0 0 0 0 0 0 0 0 0 0 0 0 0 0 0 0 0 0 0 0 0 0 0 0
-0 0 0 0 0 0 0 0 0 0 0 0 0 0 0 0 0 0 0 0 0 0 0 0 0 0 0 0 0 0 0 0 0 0 0 0 0 0 0 0 0 0 0 0 0 0 0 0 0
0 0 0 0 0 0 0 0 0 0 0 0 0 0 0 0 0 0 0 0 0 0 0 0 0 0 0 0 0 0 0 0 0 0 0 0 0 0 0 0 0 0 0 0 0 0 0 0 0
0 0 0 0 0 0 0 0 0 0 0 0 0 0 0 0 0 0 0 0 0 0 0 0 0 0 0 0 0 0 0 0 0 0 0 0 0 0 0 0 0 0 0 0 0 0 0 0 0
0 0 0 0 0 0 0 0 0 0 0 0 0 0 0 0 0 0 0 0 0 0 0 0 0 0 0 0 0 0 0 0 0 0 0 0 0 0 0 0 0 0 0 0 0 0 0 0 0
0 0 0 0 0 0 0 0 0 0 0 0 0 0 0 0 0 0 0 0 0 0 0 0 0 0 0 0 0 0 0 0 0 0 0 0 0 0 0 0 0 0 0 0 0 0 0 0 0
0 0 0 0 0 0 0 0 0 0 0 0 0 0 0 0 0 0 0 0 0 0 0 0 0 0 0 0 0 0 0 0 0 0 0 0 0 0 0 0 0 0 0 0 0 0 0 0 0
0 -0 0 0 0 0 0 0 0 0 0 0 0 0 0 0 0 0 0 0 0 0 0 0 0 0 0 0 0 0 0 0 0 0 0 0 0 0 0 0 0 0 0 0 0 0 0 0 0
0 0 0 0 0 0 0 0 0 0 0 0 0 0 0 0 0 0 0 0 0 0 0 0 0 0 0 0 0 0 0 0 0 0 0 0 0 0 0 0 0 0 0 0 0 0 0 0 0
-0 -0 0 0 0 0 0 0 0 0 0 0 0 0 0 0 0 0 0 0 0 0 0 0 0 0 0 0 0 0 0 0 0 0 0 0 0 0 0 0 0 0 0 0 0 0 0 0 0
0 0 0 -0 0 0 0 0 0 0 0 0 0 0 0 0 0 0 0 0 0 0 0 0 0 0 0 0 0 0 0 0 0 0 0 0 0 0 0 0 0 0 0 0 0 0 0 0 0
0 0 0 0 0 0 0 0 0 0 0 0 0 0 0 0 0 0 0 0 0 0 0 0 0 0 0 0 0 0 0 0 0 0 0 0 0 0 0 0 0 0 0 0 0 0 0 0 0
0 0 0 0 0 0 0 0 0 0 0 0 0 0 0 0 0 0 0 0 0 0 0 0 0 0 0 0 0 0 0 0 0 0 0 0 0 0 0 0 0 0 0 0 0 0 0 0 0
0 0 0 0 0 0 0 0 0 0 0 0 0 0 0 0 0 0 0 0 0 0 0 0 0 0 0 0 0 0 0 0 0 0 0 0 0 0 0 0 0 0 0 0 0 0 0 0 0
Wind_Speed_500mb
7 7 7 3 4 6 7 9 9 3 6 16 20 23 22 14 7 7 49 33 33 51 44 38 33 32 29 32 31 29 28 28 20 19 21 23 23 23 24 24 24 24 24 24 24 24 25 25 25
19 12 6 3 5 2 9 11 10 13 16 36 36 30 17 7 25 43 46 33 36 49 47 39 35 31 32 34 35 31 34 25 23 17 18 19 19 20 21 22 21 22 22 23 23 23 23 22 22
15 13 7 6 6 10 8 5 11 2 30 18 13 26 11 14 40 42 42 39 35 50 47 40 36 35 34 35 34 34 33 31 21 9 11 14 17 18 21 20 19 21 22 21 21 21 21 22 23
20 9 9 2 16 17 12 6 17 16 11 13 40 17 19 14 36 37 43 38 31 55 44 40 38 38 39 39 37 35 31 20 11 6 8 13 17 18 18 17 21 20 19 19 20 20 20 21 22
14 8 5 7 18 11 6 9 29 12 7 22 23 9 13 14 21 44 46 37 36 48 39 40 42 43 36 34 32 27 21 15 8 6 10 15 18 19 18 19 19 18 19 19 19 20 21 22 23
8 6 4 9 18 8 6 21 10 20 18 24 23 20 12 24 30 65 47 40 38 40 39 43 43 41 36 32 28 23 17 12 9 12 15 17 18 19 18 17 17 18 17 17 19 19 19 20 20
4 3 8 12 24 11 5 22 17 22 28 14 52 11 30 44 56 59 49 42 35 35 44 49 49 43 38 33 26 20 15 13 15 17 19 19 19 18 16 16 16 16 17 17 18 19 20 21 22
15 3 8 9 20 9 7 11 23 17 11 47 25 16 23 62 59 56 45 38 32 37 41 49 47 39 34 30 24 19 17 19 20 20 20 19 18 16 16 15 14 15 16 17 18 20 21 22 24
21 7 23 22 11 11 21 6 36 9 24 17 10 31 39 71 66 60 53 41 37 34 40 45 42 37 32 27 24 21 21 22 22 22 20 16 14 14 14 12 13 14 15 16 17 21 23 25 29
19 11 28 8 15 7 4 18 26 8 23 12 31 28 71 77 76 71 66 57 51 41 45 41 37 33 28 27 26 24 23 22 23 22 19 15 11 10 11 10 12 14 15 18 21 25 27 28 29
14 30 26 32 15 13 11 22 13 23 6 25 47 73 85 81 78 73 67 61 57 45 41 40 35 32 25 24 24 27 26 22 20 16 14 12 8 6 5 9 13 15 21 23 21 26 23 25 30
19 40 42 47 26 13 4 12 19 15 9 31 43 70 87 84 80 77 69 61 59 49 42 43 38 36 31 22 16 18 16 17 15 13 10 9 7 6 6 10 14 16 15 19 17 28 24 24 20
37 37 65 33 36 38 20 17 17 15 15 42 52 78 81 81 76 70 65 61 62 57 51 49 47 39 34 24 21 18 19 18 17 14 11 7 3 2 4 7 7 13 18 20 25 24 25 19 20
19 67 39 47 39 25 21 14 10 13 43 61 60 75 74 76 72 61 53 58 65 63 57 56 49 39 36 34 28 22 21 19 14 10 8 6 4 1 2 5 9 13 17 19 23 23 21 21 23
24 38 55 33 51 29 26 9 15 41 52 63 54 62 70 66 63 58 50 47 54 53 49 53 48 42 44 36 33 25 21 17 15 9 9 9 5 6 5 6 10 15 23 20 17 18 18 18 16
6 26 42 48 43 32 30 21 27 38 57 55 52 61 61 62 62 56 49 43 47 48 49 54 50 46 40 39 31 28 19 18 21 19 14 10 9 9 7 9 17 18 18 16 16 15 15 17 19
10 22 40 42 43 17 15 10 17 49 52 50 53 62 55 57 58 55 51 44 49 47 46 52 52 47 38 36 32 26 29 26 21 19 16 12 11 12 14 15 15 13 12 12 13 16 19 20 20
5 12 28 44 40 49 14 13 6 49 50 53 63 57 51 54 59 57 53 46 49 50 46 47 47 46 41 36 37 34 31 27 24 20 14 11 12 12 12 12 8 8 9 11 14 17 21 24 26
17 28 26 34 24 37 41 23 10 22 28 45 54 58 57 50 50 58 52 46 50 52 47 47 48 48 48 46 43 39 33 29 24 20 16 12 11 11 7 5 6 7 9 13 15 17 21 27 31
25 34 32 27 21 34 31 34 32 18 23 53 54 56 57 52 56 51 56 53 51 52 43 43 47 46 44 40 38 37 33 30 23 18 13 9 5 3 0 2 3 6 9 12 17 22 25 28 31
10 12 10 15 18 16 19 24 35 24 15 37 49 54 59 67 65 66 60 61 54 47 46 39 42 42 42 43 44 40 35 26 22 17 12 8 5 5 4 3 5 9 14 19 24 27 28 26 27
8 5 19 4 17 9 22 10 51 45 16 24 38 52 55 55 64 54 70 66 60 58 54 50 47 49 46 42 43 39 35 27 23 17 13 10 10 7 5 6 9 14 19 22 25 26 25 25 22
6 13 6 9 19 7 14 3 14 48 33 23 34 51 61 58 70 72 70 64 59 58 55 53 55 59 46 42 42 39 35 28 22 19 17 15 11 8 6 8 12 16 19 22 23 24 24 26 25
22 9 6 6 6 5 9 7 7 36 44 22 37 52 68 80 71 70 68 62 59 54 56 55 54 54 54 49 44 38 34 29 26 25 20 16 12 9 8 11 15 18 21 20 23 25 25 25 25
24 6 4 3 2 3 9 10 10 12 7 15 31 55 64 71 79 75 66 63 58 52 50 52 52 53 51 48 44 38 31 30 31 28 22 18 14 10 11 17 21 23 24 23 22 23 25 24 23
13 11 1 8 3 4 6 9 5 10 6 6 25 53 71 72 77 75 70 60 57 53 51 49 51 52 50 45 42 38 38 37 31 27 23 17 9 15 22 26 27 24 20 20 22 23 23 23 23
8 4 6 9 2 3 2 6 10 9 10 36 35 60 58 66 71 76 62 56 50 48 47 47 46 44 46 46 45 46 40 36 34 24 10 7 6 13 19 24 26 18 17 19 20 21 21 20 20
5 11 6 5 4 5 4 4 4 9 12 26 24 43 49 58 62 57 53 51 49 50 51 48 44 49 50 51 49 47 39 28 18 8 4 12 12 22 20 18 15 15 18 18 18 18 19 20 21
6 3 9 7 5 3 5 4 2 7 23 24 27 39 53 57 52 48 45 44 43 47 51 54 56 57 56 53 46 30 17 5 22 26 18 17 16 15 15 13 13 16 17 17 17 17 18 21 23
8 6 3 5 6 1 4 5 7 9 16 38 39 51 58 56 52 47 45 50 56 58 58 57 59 53 44 33 21 5 10 33 25 17 16 17 16 15 13 14 15 17 16 17 18 19 21 23 26
Wind_Direction_500mb
7 74 93 320 34 89 245 253 164 318 208 87 84 91 109 68 55 147 150 165 168 159 159 154 146 144 143 145 147 144 144 134 118 103 80 77 81 88 93 99 95 94 89 83 76 69 64 61 58
12 345 310 297 116 241 269 206 190 218 155 106 89 112 56 79 110 139 155 178 168 163 158 151 149 141 145 146 144 144 143 130 112 91 69 66 78 89 93 95 97 92 88 78 71 66 60 55 49
20 334 298 146 198 212 232 208 117 72 136 134 106 78 84 112 139 140 163 165 166 169 159 153 152 144 145 147 144 142 144 134 129 106 70 72 82 89 92 94 96 87 79 74 65 57 48 41 38
349 321 261 129 250 254 253 232 166 159 163 128 115 81 83 135 144 155 158 162 162 170 161 160 160 147 143 145 146 147 149 147 143 113 80 83 91 93 99 98 89 81 73 62 53 46 41 38 36
358 252 266 238 250 259 280 264 163 155 179 130 119 116 89 137 177 159 156 164 173 161 163 166 163 155 152 151 150 151 154 157 155 120 100 105 104 103 99 87 79 71 60 51 44 38 34 31 29
317 275 259 240 259 289 227 256 248 159 185 127 107 107 114 150 161 152 161 167 166 166 171 168 158 164 164 161 160 162 163 162 148 129 122 118 111 100 91 85 73 62 53 45 39 33 27 22 16
215 133 248 265 274 306 253 231 289 182 164 142 140 91 139 151 152 152 167 170 178 176 170 168 164 164 168 168 170 168 163 152 139 131 127 119 109 101 92 78 66 55 44 36 30 23 16 9 5
289 329 250 245 263 272 214 269 305 236 166 138 158 150 172 162 157 155 170 175 169 166 164 167 168 171 172 171 170 164 155 148 142 133 122 117 112 106 89 72 56 45 34 25 18 12 6 3 1
241 244 236 234 246 249 193 158 257 216 130 104 130 164 172 160 156 160 167 168 158 158 163 163 165 166 165 166 163 158 154 151 145 133 127 124 115 94 78 62 48 33 20 12 9 4 2 2 359
207 232 227 232 243 248 314 195 234 171 120 82 108 136 154 158 158 169 171 168 163 164 169 165 166 166 163 162 164 164 159 155 149 143 138 127 100 73 57 43 34 20 9 7 359 6 360 353 352
196 244 237 231 250 127 268 317 253 170 201 178 153 149 156 160 166 174 174 172 167 167 169 165 157 157 152 157 175 177 170 153 141 146 138 116 104 97 59 31 17 10 3 6 357 342 345 337 334
205 232 249 223 279 188 294 242 307 226 189 195 180 164 162 166 172 179 178 177 172 173 176 171 163 160 168 178 172 158 144 142 145 140 135 137 129 72 37 16 2 4 342 330 324 323 324 325 329
218 214 227 225 239 207 236 282 257 229 157 180 163 165 166 170 177 182 186 185 174 178 175 174 169 172 177 173 165 155 151 150 154 151 147 125 124 82 15 6 327 328 327 325 324 325 326 332 332
243 221 225 214 229 236 201 258 291 194 149 159 160 170 169 176 180 184 189 190 188 184 185 173 178 169 173 174 180 175 162 163 158 145 145 168 191 206 265 298 309 312 305 304 301 313 323 334 333
268 232 222 225 208 250 185 289 237 161 157 156 162 167 171 178 179 188 187 186 187 188 185 179 175 179 186 191 183 180 170 160 157 159 173 205 208 230 247 290 294 291 297 319 324 329 331 338 354
251 272 200 220 195 247 177 201 226 174 157 152 162 165 175 179 182 186 190 188 182 178 180 178 179 189 190 188 175 170 169 158 177 192 205 225 249 256 277 283 294 308 321 331 334 342 347 357 357
220 284 208 200 204 221 179 210 204 179 159 152 158 170 176 180 183 187 190 188 181 181 180 178 184 190 181 173 167 162 174 184 196 206 216 255 268 289 299 305 312 323 335 347 359 355 350 359 356
153 244 213 199 203 208 220 239 151 178 163 158 160 168 176 181 185 183 183 183 180 182 186 185 187 186 174 160 173 185 187 198 204 222 249 249 270 286 299 312 335 349 4 10 8 5 353 352 347
262 235 263 193 181 203 198 221 188 204 160 153 156 166 179 186 181 184 181 187 186 184 189 190 184 178 173 173 184 190 195 207 216 229 237 243 263 291 306 325 8 16 3 6 7 358 347 342 343
307 263 242 194 199 188 179 210 238 193 187 169 163 167 178 185 191 185 182 184 180 183 189 185 182 177 178 187 188 199 205 211 225 223 229 239 259 269 148 56 26 17 16 4 352 349 350 350 346
263 289 241 228 163 175 163 215 228 244 210 175 172 177 182 182 189 186 187 177 178 183 186 184 181 178 183 190 197 197 204 213 219 208 208 207 182 157 139 70 39 19 2 350 348 347 349 358 358
224 188 316 265 180 152 181 189 197 225 205 178 166 176 186 181 185 184 177 175 177 178 185 183 182 186 189 198 205 214 216 220 203 195 186 172 158 144 108 65 26 3 354 349 351 352 354 358 7
229 132 212 347 181 149 169 122 179 209 212 191 176 173 181 172 177 175 176 174 178 183 188 189 190 187 193 193 202 209 212 202 191 177 168 159 142 114 73 28 4 349 348 353 355 354 358 0 360
162 181 140 82 80 197 203 138 212 190 198 175 178 172 170 169 168 170 177 179 179 183 190 191 197 201 199 201 205 207 204 194 178 164 160 142 120 86 42 11 351 353 356 353 359 359 358 358 357
181 101 136 132 149 128 173 137 253 315 104 178 176 176 165 163 170 175 174 179 183 190 199 202 199 194 195 197 192 190 187 177 167 157 144 128 109 71 12 350 349 353 352 350 350 351 352 354 354
189 151 80 3 111 83 79 174 229 321 59 78 187 154 151 157 167 169 174 181 188 191 192 193 190 189 188 192 188 181 169 157 145 129 116 102 30 359 0 355 336 328 332 341 348 350 350 352 356
164 102 154 118 16 110 46 237 254 125 94 81 107 126 133 144 159 164 175 183 184 183 185 187 185 184 181 177 168 154 145 135 128 124 98 49 33 343 314 307 301 304 331 340 342 346 347 351 354
195 142 105 26 122 110 187 245 171 167 134 120 120 121 125 139 157 162 166 175 181 182 181 178 171 168 157 152 146 136 132 132 126 123 289 306 281 278 280 275 289 317 328 331 336 341 346 347 349
33 93 52 97 90 86 122 294 41 264 166 152 131 130 134 149 155 156 164 172 177 170 161 156 154 152 147 143 138 134 122 86 322 297 229 256 256 258 261 277 305 312 318 326 330 334 342 344 345
296 347 67 110 215 129 138 301 329 277 157 137 130 139 155 161 160 164 168 167 161 158 154 149 143 139 140 145 136 105 272 285 230 244 255 255 250 256 271 286 294 303 313 318 322 330 340 341 337
Wind_Speed_850mb
7 7 7 3 4 6 7 9 9 3 6 16 20 23 22 14 7 7 49 33 33 51 44 38 33 32 29 32 31 29 28 28 20 19 21 23 23 23 24 24 24 24 24 24 24 24 25 25 25
19 12 6 3 5 2 9 11 10 13 16 36 36 30 17 7 25 43 46 33 36 49 47 39 35 31 32 34 35 31 34 25 23 17 18 19 19 20 21 22 21 22 22 23 23 23 23 22 22
15 13 7 6 6 10 8 5 11 2 30 18 13 26 11 14 40 42 42 39 35 50 47 40 36 35 34 35 34 34 33 31 21 9 11 14 17 18 21 20 19 21 22 21 21 21 21 22 23
20 9 9 2 16 17 12 6 17 16 11 13 40 17 19 14 36 37 43 38 31 55 44 40 38 38 39 39 37 35 31 20 11 6 8 13 17 18 18 17 21 20 19 19 20 20 20 21 22
14 8 5 7 18 11 6 9 29 12 7 22 23 9 13 14 21 44 46 37 36 48 39 40 42 43 36 34 32 27 21 15 8 6 10 15 18 19 18 19 19 18 19 19 19 20 21 22 23
8 6 4 9 18 8 6 21 10 20 18 24 23 20 12 24 30 65 47 40 38 40 39 43 43 41 36 32 28 23 17 12 9 12 15 17 18 19 18 17 17 18 17 17 19 19 19 20 20
4 3 8 12 24 11 5 22 17 22 28 14 52 11 30 44 56 59 49 42 35 35 44 49 49 43 38 33 26 20 15 13 15 17 19 19 19 18 16 16 16 16 17 17 18 19 20 21 22
15 3 8 9 20 9 7 11 23 17 11 47 25 16 23 62 59 56 45 38 32 37 41 49 47 39 34 30 24 19 17 19 20 20 20 19 18 16 16 15 14 15 16 17 18 20 21 22 24
21 7 23 22 11 11 21 6 36 9 24 17 10 31 39 71 66 60 53 41 37 34 40 45 42 37 32 27 24 21 21 22 22 22 20 16 14 14 14 12 13 14 15 16 17 21 23 25 29
19 11 28 8 15 7 4 18 26 8 23 12 31 28 71 77 76 71 66 57 51 41 45 41 37 33 28 27 26 24 23 22 23 22 19 15 11 10 11 10 12 14 15 18 21 25 27 28 29
14 30 26 32 15 13 11 22 13 23 6 25 47 73 85 81 78 73 67 61 57 45 41 40 35 32 25 24 24 27 26 22 20 16 14 12 8 6 5 9 13 15 21 23 21 26 23 25 30
19 40 42 47 26 13 4 12 19 15 9 31 43 70 87 84 80 77 69 61 59 49 42 43 38 36 31 22 16 18 16 17 15 13 10 9 7 6 6 10 14 16 15 19 17 28 24 24 20
37 37 65 33 36 38 20 17 17 15 15 42 52 78 81 81 76 70 65 61 62 57 51 49 47 39 34 24 21 18 19 18 17 14 11 7 3 2 4 7 7 13 18 20 25 24 25 19 20
19 67 39 47 39 25 21 14 10 13 43 61 60 75 74 76 72 61 53 58 65 63 57 56 49 39 36 34 28 22 21 19 14 10 8 6 4 1 2 5 9 13 17 19 23 23 21 21 23
24 38 55 33 51 29 26 9 15 41 52 63 54 62 70 66 63 58 50 47 54 53 49 53 48 42 44 36 33 25 21 17 15 9 9 9 5 6 5 6 10 15 23 20 17 18 18 18 16
6 26 42 48 43 32 30 21 27 38 57 55 52 61 61 62 62 56 49 43 47 48 49 54 50 46 40 39 31 28 19 18 21 19 14 10 9 9 7 9 17 18 18 16 16 15 15 17 19
10 22 40 42 43 17 15 10 17 49 52 50 53 62 55 57 58 55 51 44 49 47 46 52 52 47 38 36 32 26 29 26 21 19 16 12 11 12 14 15 15 13 12 12 13 16 19 20 20
5 12 28 44 40 49 14 13 6 49 50 53 63 57 51 54 59 57 53 46 49 50 46 47 47 46 41 36 37 34 31 27 24 20 14 11 12 12 12 12 8 8 9 11 14 17 21 24 26
17 28 26 34 24 37 41 23 10 22 28 45 54 58 57 50 50 58 52 46 50 52 47 47 48 48 48 46 43 39 33 29 24 20 16 12 11 11 7 5 6 7 9 13 15 17 21 27 31
25 34 32 27 21 34 31 34 32 18 23 53 54 56 57 52 56 51 56 53 51 52 43 43 47 46 44 40 38 37 33 30 23 18 13 9 5 3 0 2 3 6 9 12 17 22 25 28 31
10 12 10 15 18 16 19 24 35 24 15 37 49 54 59 67 65 66 60 61 54 47 46 39 42 42 42 43 44 40 35 26 22 17 12 8 5 5 4 3 5 9 14 19 24 27 28 26 27
8 5 19 4 17 9 22 10 51 45 16 24 38 52 55 55 64 54 70 66 60 58 54 50 47 49 46 42 43 39 35 27 23 17 13 10 10 7 5 6 9 14 19 22 25 26 25 25 22
6 13 6 9 19 7 14 3 14 48 33 23 34 51 61 58 70 72 70 64 59 58 55 53 55 59 46 42 42 39 35 28 22 19 17 15 11 8 6 8 12 16 19 22 23 24 24 26 25
22 9 6 6 6 5 9 7 7 36 44 22 37 52 68 80 71 70 68 62 59 54 56 55 54 54 54 49 44 38 34 29 26 25 20 16 12 9 8 11 15 18 21 20 23 25 25 25 25
24 6 4 3 2 3 9 10 10 12 7 15 31 55 64 71 79 75 66 63 58 52 50 52 52 53 51 48 44 38 31 30 31 28 22 18 14 10 11 17 21 23 24 23 22 23 25 24 23
13 11 1 8 3 4 6 9 5 10 6 6 25 53 71 72 77 75 70 60 57 53 51 49 51 52 50 45 42 38 38 37 31 27 23 17 9 15 22 26 27 24 20 20 22 23 23 23 23
8 4 6 9 2 3 2 6 10 9 10 36 35 60 58 66 71 76 62 56 50 48 47 47 46 44 46 46 45 46 40 36 34 24 10 7 6 13 19 24 26 18 17 19 20 21 21 20 20
5 11 6 5 4 5 4 4 4 9 12 26 24 43 49 58 62 57 53 51 49 50 51 48 44 49 50 51 49 47 39 28 18 8 4 12 12 22 20 18 15 15 18 18 18 18 19 20 21
6 3 9 7 5 3 5 4 2 7 23 24 27 39 53 57 52 48 45 44 43 47 51 54 56 57 56 53 46 30 17 5 22 26 18 17 16 15 15 13 13 16 17 17 17 17 18 21 23
8 6 3 5 6 1 4 5 7 9 16 38 39 51 58 56 52 47 45 50 56 58 58 57 59 53 44 33 21 5 10 33 25 17 16 17 16 15 13 14 15 17 16 17 18 19 21 23 26
Wind_Direction_850mb
7 74 93 320 34 89 245 253 164 318 208 87 84 91 109 68 55 147 150 165 168 159 159 154 146 144 143 145 147 144 144 134 118 103 80 77 81 88 93 99 95 94 89 83 76 69 64 61 58
12 345 310 297 116 241 269 206 190 218 155 106 89 112 56 79 110 139 155 178 168 163 158 151 149 141 145 146 144 144 143 130 112 91 69 66 78 89 93 95 97 92 88 78 71 66 60 55 49
20 334 298 146 198 212 232 208 117 72 136 134 106 78 84 112 139 140 163 165 166 169 159 153 152 144 145 147 144 142 144 134 129 106 70 72 82 89 92 94 96 87 79 74 65 57 48 41 38
349 321 261 129 250 254 253 232 166 159 163 128 115 81 83 135 144 155 158 162 162 170 161 160 160 147 143 145 146 147 149 147 143 113 80 83 91 93 99 98 89 81 73 62 53 46 41 38 36
358 252 266 238 250 259 280 264 163 155 179 130 119 116 89 137 177 159 156 164 173 161 163 166 163 155 152 151 150 151 154 157 155 120 100 105 104 103 99 87 79 71 60 51 44 38 34 31 29
317 275 259 240 259 289 227 256 248 159 185 127 107 107 114 150 161 152 161 167 166 166 171 168 158 164 164 161 160 162 163 162 148 129 122 118 111 100 91 85 73 62 53 45 39 33 27 22 16
215 133 248 265 274 306 253 231 289 182 164 142 140 91 139 151 152 152 167 170 178 176 170 168 164 164 168 168 170 168 163 152 139 131 127 119 109 101 92 78 66 55 44 36 30 23 16 9 5
289 329 250 245 263 272 214 269 305 236 166 138 158 150 172 162 157 155 170 175 169 166 164 167 168 171 172 171 170 164 155 148 142 133 122 117 112 106 89 72 56 45 34 25 18 12 6 3 1
241 244 236 234 246 249 193 158 257 216 130 104 130 164 172 160 156 160 167 168 158 158 163 163 165 166 165 166 163 158 154 151 145 133 127 124 115 94 78 62 48 33 20 12 9 4 2 2 359
207 232 227 232 243 248 314 195 234 171 120 82 108 136 154 158 158 169 171 168 163 164 169 165 166 166 163 162 164 164 159 155 149 143 138 127 100 73 57 43 34 20 9 7 359 6 360 353 352
196 244 237 231 250 127 268 317 253 170 201 178 153 149 156 160 166 174 174 172 167 167 169 165 157 157 152 157 175 177 170 153 141 146 138 116 104 97 59 31 17 10 3 6 357 342 345 337 334
205 232 249 223 279 188 294 242 307 226 189 195 180 164 162 166 172 179 178 177 172 173 176 171 163 160 168 178 172 158 144 142 145 140 135 137 129 72 37 16 2 4 342 330 324 323 324 325 329
218 214 227 225 239 207 236 282 257 229 157 180 163 165 166 170 177 182 186 185 174 178 175 174 169 172 177 173 165 155 151 150 154 151 147 125 124 82 15 6 327 328 327 325 324 325 326 332 332
243 221 225 214 229 236 201 258 291 194 149 159 160 170 169 176 180 184 189 190 188 184 185 173 178 169 173 174 180 175 162 163 158 145 145 168 191 206 265 298 309 312 305 304 301 313 323 334 333
268 232 222 225 208 250 185 289 237 161 157 156 162 167 171 178 179 188 187 186 187 188 185 179 175 179 186 191 183 180 170 160 157 159 173 205 208 230 247 290 294 291 297 319 324 329 331 338 354
251 272 200 220 195 247 177 201 226 174 157 152 162 165 175 179 182 186 190 188 182 178 180 178 179 189 190 188 175 170 169 158 177 192 205 225 249 256 277 283 294 308 321 331 334 342 347 357 357
220 284 208 200 204 221 179 210 204 179 159 152 158 170 176 180 183 187 190 188 181 181 180 178 184 190 181 173 167 162 174 184 196 206 216 255 268 289 299 305 312 323 335 347 359 355 350 359 356
153 244 213 199 203 208 220 239 151 178 163 158 160 168 176 181 185 183 183 183 180 182 186 185 187 186 174 160 173 185 187 198 204 222 249 249 270 286 299 312 335 349 4 10 8 5 353 352 347
262 235 263 193 181 203 198 221 188 204 160 153 156 166 179 186 181 184 181 187 186 184 189 190 184 178 173 173 184 190 195 207 216 229 237 243 263 291 306 325 8 16 3 6 7 358 347 342 343
307 263 242 194 199 188 179 210 238 193 187 169 163 167 178 185 191 185 182 184 180 183 189 185 182 177 178 187 188 199 205 211 225 223 229 239 259 269 148 56 26 17 16 4 352 349 350 350 346
263 289 241 228 163 175 163 215 228 244 210 175 172 177 182 182 189 186 187 177 178 183 186 184 181 178 183 190 197 197 204 213 219 208 208 207 182 157 139 70 39 19 2 350 348 347 349 358 358
224 188 316 265 180 152 181 189 197 225 205 178 166 176 186 181 185 184 177 175 177 178 185 183 182 186 189 198 205 214 216 220 203 195 186 172 158 144 108 65 26 3 354 349 351 352 354 358 7
229 132 212 347 181 149 169 122 179 209 212 191 176 173 181 172 177 175 176 174 178 183 188 189 190 187 193 193 202 209 212 202 191 177 168 159 142 114 73 28 4 349 348 353 355 354 358 0 360
162 181 140 82 80 197 203 138 212 190 198 175 178 172 170 169 168 170 177 179 179 183 190 191 197 201 199 201 205 207 204 194 178 164 160 142 120 86 42 11 351 353 356 353 359 359 358 358 357
181 101 136 132 149 128 173 137 253 315 104 178 176 176 165 163 170 175 174 179 183 190 199 202 199 194 195 197 192 190 187 177 167 157 144 128 109 71 12 350 349 353 352 350 350 351 352 354 354
189 151 80 3 111 83 79 174 229 321 59 78 187 154 151 157 167 169 174 181 188 191 192 193 190 189 188 192 188 181 169 157 145 129 116 102 30 359 0 355 336 328 332 341 348 350 350 352 356
164 102 154 118 16 110 46 237 254 125 94 81 107 126 133 144 159 164 175 183 184 183 185 187 185 184 181 177 168 154 145 135 128 124 98 49 33 343 314 307 301 304 331 340 342 346 347 351 354
195 142 105 26 122 110 187 245 171 167 134 120 120 121 125 139 157 162 166 175 181 182 181 178 171 168 157 152 146 136 132 132 126 123 289 306 281 278 280 275 289 317 328 331 336 341 346 347 349
33 93 52 97 90 86 122 294 41 264 166 152 131 130 134 149 155 156 164 172 177 170 161 156 154 152 147 143 138 134 122 86 322 297 229 256 256 258 261 277 305 312 318 326 330 334 342 344 345
296 347 67 110 215 129 138 301 329 277 157 137 130 139 155 161 160 164 168 167 161 158 154 149 143 139 140 145 136 105 272 285 230 244 255 255 250 256 271 286 294 303 313 318 322 330 340 341 337